Weather History for MMCZ - August, 2013

Change the Weather History Date:

Wednesday, August 28, 2013

  Actual Average Record
Temperature  
Mean Temperature 76 °F -  
Max Temperature 84 °F 89 °F 95 °F (2008)
Min Temperature 68 °F 76 °F 68 °F (2013)
Cooling Degree Days 11    
Growing Degree Days 26 (Base 50)    
Moisture  
Dew Point 72 °F    
Average Humidity 92    
Maximum Humidity 100    
Minimum Humidity 70    
Precipitation  
Precipitation 0.00 in - - ()
Sea Level Pressure  
Sea Level Pressure 29.97 in    
Wind  
Wind Speed 2 mph ()    
Max Wind Speed 10 mph    
Max Gust Speed -    
Visibility 7.3 miles    
Events Rain    
Averages and records for this station are not official NWS values.
T = Trace of Precipitation, MM = Missing Value Source: Averaged Metar Reports

Daily Weather History Graph

Daily Weather History Graph

Search for Another Location

Airport or City:

Trip Planner

Search our weather history database for the weather conditions in past years. The results will help you decide how hot, cold, wet, or windy it might be!

Date:

Astronomy

Aug. 28, 2013 Rise Set
Actual Time 6:30 AM CDT 7:06 PM CDT
Civil Twilight 6:08 AM CDT 7:29 PM CDT
Nautical Twilight 5:41 AM CDT 7:55 PM CDT
Astronomical Twilight 5:15 AM CDT 8:22 PM CDT
Moon No Moon Rise 1:22 PM CDT (8/28)
Length of Visible Light 13h 20m
Length of Day
12h 35m
Waning Gibbous, 47% of the Moon is Illuminated
Aug 28
Waning Gibbous
Sep 5
New
Sep 12
First Quarter
Sep 19
Full
Sep 26
Last Quarter

Hourly Weather History & Observations

Time (CDT) Temp. Heat Index Dew Point Humidity Pressure Visibility Wind Dir Wind Speed Gust Speed Precip Events Conditions
12:02 AM 71.6 °F - 71.6 °F 100% 29.98 in 7.0 mi Calm Calm - N/A   Partly Cloudy
12:50 AM 71.6 °F - 71.6 °F 100% 29.96 in 4.0 mi ESE 6.9 mph - N/A Rain Rain
1:40 AM 69.8 °F - 69.8 °F 100% 29.94 in 7.0 mi Calm Calm - N/A   Mostly Cloudy
2:44 AM 68.0 °F - 68.0 °F 100% 29.93 in 7.0 mi Calm Calm - N/A   Mostly Cloudy
3:46 AM 69.8 °F - 69.8 °F 100% 29.96 in 7.0 mi Calm Calm - N/A   Scattered Clouds
5:00 AM 68.0 °F - 68.0 °F 100% 29.93 in 7.0 mi Calm Calm - N/A   Scattered Clouds
5:45 AM 68.0 °F - 68.0 °F 100% 29.93 in 7.0 mi Calm Calm - N/A   Partly Cloudy
6:43 AM 68.0 °F - 68.0 °F 100% 29.91 in 7.0 mi Calm Calm - N/A   Mostly Cloudy
7:45 AM 69.8 °F - 69.8 °F 100% 29.98 in 7.0 mi SE 3.5 mph - N/A   Mostly Cloudy
8:44 AM 71.6 °F - 71.6 °F 100% 29.99 in 7.0 mi Calm Calm - N/A   Mostly Cloudy
9:41 AM 78.8 °F - 71.6 °F 78% 30.02 in 8.0 mi Calm Calm - N/A   Mostly Cloudy
10:44 AM 82.4 °F 89.5 °F 75.2 °F 79% 30.00 in 8.0 mi East 5.8 mph - N/A   Mostly Cloudy
11:46 AM 82.4 °F 89.5 °F 75.2 °F 79% 29.99 in 8.0 mi East 4.6 mph - N/A   Mostly Cloudy
12:49 PM 84.2 °F 90.9 °F 73.4 °F 70% 29.96 in 8.0 mi ENE 10.4 mph - N/A   Mostly Cloudy
1:45 PM 78.8 °F - 75.2 °F 89% 29.98 in 8.0 mi ENE 6.9 mph - N/A   Mostly Cloudy
2:46 PM 82.4 °F 89.5 °F 75.2 °F 79% 29.95 in 8.0 mi East 4.6 mph - N/A   Mostly Cloudy
3:40 PM 80.6 °F 86.2 °F 75.2 °F 84% 29.96 in 8.0 mi East 4.6 mph - N/A   Overcast
4:44 PM 78.8 °F - 75.2 °F 89% 29.94 in 8.0 mi ENE 6.9 mph - N/A   Overcast
5:43 PM 78.8 °F - 73.4 °F 83% 29.94 in 8.0 mi East 3.5 mph - N/A   Mostly Cloudy
6:51 PM 77.0 °F - 73.4 °F 89% 29.95 in 8.0 mi ESE 4.6 mph - N/A   Overcast
8:09 PM 75.2 °F - 73.4 °F 94% 29.98 in 7.0 mi Calm Calm - N/A   Overcast
8:49 PM 73.4 °F - 71.6 °F 94% 29.99 in 7.0 mi Calm Calm - N/A   Mostly Cloudy
9:43 PM 71.6 °F - 69.8 °F 94% 30.04 in 7.0 mi Calm Calm - N/A   Mostly Cloudy
10:40 PM 71.6 °F - 69.8 °F 94% 30.01 in 7.0 mi Calm Calm - N/A   Mostly Cloudy
11:40 PM 71.6 °F - 69.8 °F 94% 30.01 in 7.0 mi Calm Calm - N/A   Mostly Cloudy